Address 0xe8bf85fa63f6e5fa702b136280c5919536c940fa 3

 
 
Txn Hash Method
Block
From
To
Value [Txn Fee]
0xdb252c60df279da13a096b52e0711300dd2a3b76abb1039de6fd4beffebe1ab3Execute Meta Tra...335136092022-09-24 16:13:163 mins ago0xe8bf85fa63f6e5fa702b136280c5919536c940faOUT 0x7ee486098de195a5bb0ed2df5a7838e660b9f9e60 MATIC0.019859647507 34.650000013
0x8e197be2a2d22fb1a8142f4a0c7083dcb8a7284d2a1e7e76d69c5c6c50867708Execute Personal...335131852022-09-24 15:58:4017 mins ago0xe8bf85fa63f6e5fa702b136280c5919536c940faOUT 0x86c80a8aa58e0a4fa09a69624c31ab2a6cad56b80 MATIC0.004203850375 34.657496684
0xb6d323e0c32ab80d0697a5f62d6bb3c2ca7dd342677cf806a726e36917ce1f39Execute EIP712335128262022-09-24 15:46:1830 mins ago0xe8bf85fa63f6e5fa702b136280c5919536c940faOUT 0x86c80a8aa58e0a4fa09a69624c31ab2a6cad56b80 MATIC0.009657095938 34.838511155
0x84e71d17034be6d377ae1cf85b5c128ef3cf6b506be29529a483cc31305f4ac9Execute Meta Tra...335126012022-09-24 15:38:3637 mins ago0xe8bf85fa63f6e5fa702b136280c5919536c940faOUT 0x89aac1f5ccdd54dd8a09e5c858f19a665e4fa32b0 MATIC0.006490187552 34.650000015
0x7f374dc3824c2f02403d4edf9e7c0b4b68d476164295341204707d0b9da867f9Execute Meta Tra...335122702022-09-24 15:27:1449 mins ago0xe8bf85fa63f6e5fa702b136280c5919536c940faOUT 0x8a01e0e9cae839bbba97b6fb81b9f7efbec0c5470 MATIC0.012078712805 34.650000015
0x9ab80d4a9353b9b22e28bff57736cd6817403e8d9d5b966f1d4ef4fa3308e7a4Execute EIP712335120512022-09-24 15:19:4056 mins ago0xe8bf85fa63f6e5fa702b136280c5919536c940faOUT 0x86c80a8aa58e0a4fa09a69624c31ab2a6cad56b80 MATIC0.020242841859 34.650000017
0x8ddea5648938634c6ac8d3dff34dc518c7ad2d66978553b6bcfb32dfeceafb78Execute Meta Tra...335119542022-09-24 15:16:221 hr ago0xe8bf85fa63f6e5fa702b136280c5919536c940faOUT 0xf1b5af2bd94ddfb696b54dabb06118a79c7460bc0 MATIC0.004728962702 34.650000015
0x0dcdb89c7155d26122e6bfab64082e26d66158f98fdcde0e328321c74102424aExecute EIP712335116682022-09-24 15:06:301 hr 9 mins ago0xe8bf85fa63f6e5fa702b136280c5919536c940faOUT 0xf0511f123164602042ab2bcf02111fa5d3fe97cd0 MATIC0.002663857351 34.650000014
0x277c9612032bc329fb55f57402130a0f6b46d26f67d2799a9b03326e0091b1a0Execute Meta Tra...335113842022-09-24 14:56:411 hr 19 mins ago0xe8bf85fa63f6e5fa702b136280c5919536c940faOUT 0x7adbced399630dd11a97f2e2dc206911167071ae0 MATIC0.006182980652 34.650000014
0x1cb6cd770b65f36bd65fba4c8ae9d6703dc6a07ce1f78faa61db00445393b5dbExecute Meta Tra...335111342022-09-24 14:48:051 hr 28 mins ago0xe8bf85fa63f6e5fa702b136280c5919536c940faOUT 0xf1b5af2bd94ddfb696b54dabb06118a79c7460bc0 MATIC0.004728962701 34.650000013
0x3975249e99a172235ed8d871409b1757883e7ed15bdef9746157507213456631Execute Meta Tra...335109522022-09-24 14:41:491 hr 34 mins ago0xe8bf85fa63f6e5fa702b136280c5919536c940faOUT 0xf1b5af2bd94ddfb696b54dabb06118a79c7460bc0 MATIC0.004728962701 34.650000013
0x79c920567a3aef6aef386d10a8df1111f3a653b3c974a42af5fb39ab01fe749cExecute Meta Tra...335104072022-09-24 14:23:071 hr 53 mins ago0xe8bf85fa63f6e5fa702b136280c5919536c940faOUT 0x89aac1f5ccdd54dd8a09e5c858f19a665e4fa32b0 MATIC0.007306506914 34.65000007
0x5641323e945ae28c039b2f0d904a2e2ceeb343ff234af4291d7c9c592550390bExecute Personal...335100972022-09-24 14:10:192 hrs 6 mins ago0xe8bf85fa63f6e5fa702b136280c5919536c940faOUT 0x86c80a8aa58e0a4fa09a69624c31ab2a6cad56b80 MATIC0.004290905558 35.371700025
0xa658673f68e2a39ff691145c84b6129ed4060e029a9a395692dd67df0a33ecc7Execute Meta Tra...335098672022-09-24 14:02:232 hrs 13 mins ago0xe8bf85fa63f6e5fa702b136280c5919536c940faOUT 0xf1b5af2bd94ddfb696b54dabb06118a79c7460bc0 MATIC0.004728962703 34.650000022
0x0add218f6a625e200f98e6696191e6af44d8736c3091477f6b4e17fa2afe1cb8Execute EIP712335095462022-09-24 13:51:212 hrs 25 mins ago0xe8bf85fa63f6e5fa702b136280c5919536c940faOUT 0xf0511f123164602042ab2bcf02111fa5d3fe97cd0 MATIC0.002663857352 34.650000037
0x5beed47165670bcd2c62ce0fca729f78f3a7ee76590f0fcafd341ed000d0b627Execute EIP712335093532022-09-24 13:44:432 hrs 31 mins ago0xe8bf85fa63f6e5fa702b136280c5919536c940faOUT 0x86c80a8aa58e0a4fa09a69624c31ab2a6cad56b80 MATIC0.009605673004 34.650000016
0x6fa97a9cb2e60d2e6fa118adbe1252b816a5e8e65d5594f6210664836582a428Execute Meta Tra...335089022022-09-24 13:29:132 hrs 47 mins ago0xe8bf85fa63f6e5fa702b136280c5919536c940faOUT 0xf1b5af2bd94ddfb696b54dabb06118a79c7460bc0 MATIC0.004728131102 34.650000016
0xbb8c15ea2e06535afa659d859a1476f4b0f14e911dcebcf8585acbf3cc476135Execute Meta Tra...335085722022-09-24 13:17:532 hrs 58 mins ago0xe8bf85fa63f6e5fa702b136280c5919536c940faOUT 0x89aac1f5ccdd54dd8a09e5c858f19a665e4fa32b0 MATIC0.008597466983 42.060531113
0x5d6d683e44d290d4c3707f0e7d5a048ca09942ddefffb3fc1948f37fe56cfc7cExecute Personal...335081802022-09-24 13:04:253 hrs 11 mins ago0xe8bf85fa63f6e5fa702b136280c5919536c940faOUT 0x86c80a8aa58e0a4fa09a69624c31ab2a6cad56b80 MATIC0.004202352001 34.650000012
0xa74d2d5dfec4fd8ca60f912d51a108b8bf5cee2c2568d1c5fb9f3544852ad429Execute EIP712335077732022-09-24 12:50:233 hrs 25 mins ago0xe8bf85fa63f6e5fa702b136280c5919536c940faOUT 0x86c80a8aa58e0a4fa09a69624c31ab2a6cad56b80 MATIC0.009629893354 34.650000015
0xb28164876da23f38c200b80fae26ac3d4acfc6e8923b13e449156a061c084a21Execute EIP712335076872022-09-24 12:47:263 hrs 28 mins ago0xe8bf85fa63f6e5fa702b136280c5919536c940faOUT 0xf0511f123164602042ab2bcf02111fa5d3fe97cd0 MATIC0.003256233751 34.650000014
0xe5445c11da36693900136773145d6092d7588f33b12179a1d5e78baa8b3f4f8bExecute EIP712335074592022-09-24 12:39:383 hrs 36 mins ago0xe8bf85fa63f6e5fa702b136280c5919536c940faOUT 0xf0511f123164602042ab2bcf02111fa5d3fe97cd0 MATIC0.007652071352 34.650000013
0xe314b1395b445e921978c0585fcd0534f42a70600c29b461054d65434b2e7269Execute EIP712335071662022-09-24 12:29:323 hrs 46 mins ago0xe8bf85fa63f6e5fa702b136280c5919536c940faOUT 0xf0511f123164602042ab2bcf02111fa5d3fe97cd0 MATIC0.003256649553 34.650000035
0x51662ad20628a0b8b73581505ec079aa67b1dca3526e4d98121a15cbea554345Execute EIP712335069262022-09-24 12:19:083 hrs 57 mins ago0xe8bf85fa63f6e5fa702b136280c5919536c940faOUT 0x86c80a8aa58e0a4fa09a69624c31ab2a6cad56b80 MATIC0.004666280852 34.650000015
0xff98dc54c18315f6ba019d9abff0db4f718beb4dbef03a1faa21eee5307b2071Execute Personal...335066822022-09-24 12:10:444 hrs 5 mins ago0xe8bf85fa63f6e5fa702b136280c5919536c940faOUT 0x86c80a8aa58e0a4fa09a69624c31ab2a6cad56b80 MATIC0.005175046802 34.650000014
[ Download CSV Export 
Parent Txn Hash Block From To Value
Loading

Contract Name:
0 MATIC

Compiler Version
0

Optimization Enabled:
0 MATIC

Other Settings:
-NA-
Block Transaction Gas Used Reward
Age Block Fee Address BC Fee Address Voting Power Jailed Incoming
Block Uncle Number Difficulty Gas Used Reward
Loading
Loading
Make sure to use the "Vote Down" button for any spammy posts, and the "Vote Up" for interesting conversations.